Sexton Summit, OR

5:40 PM PDT on August 17, 2017 (GMT -0700)
Sexton Summit

Weather History for KSXT - December, 2012

Change the Weather History Date:

Monday, December 3, 2012

  Actual Average Record
Temperature  
Mean Temperature 38 °F -  
Max Temperature 42 °F 39 °F 53 °F (2000)
Min Temperature 35 °F 32 °F 23 °F (2013)
Degree Days  
Heating Degree Days 26    
Moisture  
Dew Point 35 °F    
Average Humidity 92    
Maximum Humidity 100    
Minimum Humidity 76    
Precipitation  
Precipitation 0.18 in - - ()
Sea Level Pressure  
Sea Level Pressure 29.99 in    
Wind  
Wind Speed 13 mph (South)    
Max Wind Speed 25 mph    
Max Gust Speed 37 mph    
Visibility 5 miles    
Events Fog , Rain    
Averages and records for this station are not official NWS values.
T = Trace of Precipitation, MM = Missing Value Source: NWS Daily Summary

Daily Weather History Graph

Daily Weather History Graph

Search for Another Location

Airport or City:

Trip Planner

Search our weather history database for the weather conditions in past years. The results will help you decide how hot, cold, wet, or windy it might be!

Date:

Astronomy

Dec. 03, 2012 Rise Set
Actual Time 7:26 AM PST 4:40 PM PST
Civil Twilight 6:54 AM PST 5:12 PM PST
Nautical Twilight 6:19 AM PST 5:47 PM PST
Astronomical Twilight 5:45 AM PST 6:21 PM PST
Moon 9:36 PM PST (12/3) 10:49 AM PST (12/3)
Length of Visible Light 10h 17m
Length of Day
9h 13m
Waning Gibbous, 77% of the Moon is Illuminated
Dec 3
Waning Gibbous
Dec 6
Last Quarter
Dec 13
New
Dec 19
First Quarter
Dec 28
Full

Hourly Weather History & Observations

Time (PST) Temp. Windchill Dew Point Humidity Pressure Visibility Wind Dir Wind Speed Gust Speed Precip Events Conditions
12:56 AM 36.0 °F 28.0 °F 35.1 °F 97% 30.05 in 0.2 mi SSW 11.5 mph 20.7 mph 0.00 in Fog Fog
1:56 AM 35.1 °F 26.4 °F 35.1 °F 100% 30.08 in 0.2 mi SSW 12.7 mph 21.9 mph 0.00 in Fog Fog
2:56 AM 36.0 °F 27.5 °F 35.1 °F 97% 30.09 in 0.2 mi South 12.7 mph - 0.00 in Fog , Rain Light Rain
3:56 AM 36.0 °F 28.0 °F 35.1 °F 97% 30.08 in 0.2 mi South 11.5 mph 18.4 mph 0.00 in Fog Fog
4:56 AM 36.0 °F 27.5 °F 35.1 °F 97% 30.09 in 0.2 mi South 12.7 mph 20.7 mph N/A Fog Fog
5:19 AM 35.6 °F 28.0 °F 35.6 °F 100% 30.04 in 0.2 mi South 10.4 mph 19.6 mph 0.00 in Fog , Rain Light Rain
5:56 AM 36.0 °F 28.0 °F 35.1 °F 97% 30.10 in 0.2 mi South 11.5 mph 21.9 mph 0.00 in Fog , Rain Light Rain
6:17 AM 35.6 °F 26.2 °F 35.6 °F 100% 30.05 in 0.5 mi South 15.0 mph 24.2 mph 0.00 in Fog Fog
6:52 AM 35.6 °F 27.5 °F 33.8 °F 93% 30.06 in 1.5 mi South 11.5 mph 23.0 mph 0.00 in Rain Light Rain
6:56 AM 35.1 °F 26.4 °F 34.0 °F 96% 30.12 in 2.0 mi South 12.7 mph 23.0 mph 0.00 in Rain Light Rain
7:12 AM 35.6 °F 26.6 °F 33.8 °F 93% 30.06 in 3.0 mi South 13.8 mph 20.7 mph 0.01 in   Overcast
7:20 AM 35.6 °F 27.1 °F 33.8 °F 93% 30.07 in 4.0 mi South 12.7 mph 21.9 mph 0.01 in   Overcast
7:56 AM 35.1 °F 26.4 °F 34.0 °F 96% 30.12 in 10.0 mi South 12.7 mph 19.6 mph 0.01 in   Overcast
8:37 AM 35.6 °F 27.1 °F 33.8 °F 93% 30.07 in 10.0 mi South 12.7 mph 18.4 mph N/A   Overcast
8:56 AM 36.0 °F 27.5 °F 34.0 °F 93% 30.12 in 10.0 mi South 12.7 mph - N/A   Overcast
9:56 AM 39.0 °F 32.3 °F 35.1 °F 86% 30.13 in 10.0 mi SSE 10.4 mph - N/A   Mostly Cloudy
10:56 AM 41.0 °F 34.7 °F 36.0 °F 82% 30.12 in 10.0 mi SSE 10.4 mph - N/A   Mostly Cloudy
11:03 AM 39.2 °F 33.0 °F 35.6 °F 87% 30.07 in 10.0 mi SE 9.2 mph - N/A   Scattered Clouds
11:56 AM 42.1 °F 37.1 °F 37.0 °F 82% 30.10 in 10.0 mi SSE 8.1 mph 18.4 mph N/A   Clear
12:19 PM 39.2 °F 33.0 °F 35.6 °F 87% 30.07 in 10.0 mi SSE 9.2 mph - N/A   Mostly Cloudy
12:56 PM 39.0 °F 32.3 °F 35.1 °F 86% 30.10 in 10.0 mi South 10.4 mph - N/A   Mostly Cloudy
1:09 PM 39.2 °F 32.0 °F 33.8 °F 81% 30.06 in 10.0 mi South 11.5 mph - N/A   Scattered Clouds
1:56 PM 39.9 °F 32.9 °F 34.0 °F 79% 30.08 in 10.0 mi South 11.5 mph - N/A   Clear
2:56 PM 39.0 °F 32.8 °F 34.0 °F 82% 30.05 in 10.0 mi SSE 9.2 mph - N/A   Clear
3:56 PM 39.0 °F 31.8 °F 32.0 °F 76% 30.03 in 10.0 mi SSE 11.5 mph - N/A   Scattered Clouds
4:56 PM 37.9 °F 30.9 °F 32.0 °F 79% 30.01 in 10.0 mi SSE 10.4 mph - N/A   Overcast
5:56 PM 37.9 °F 29.6 °F 30.9 °F 76% 29.97 in 10.0 mi SE 13.8 mph 19.6 mph N/A   Overcast
6:56 PM 37.0 °F 27.0 °F 33.1 °F 86% 29.95 in 8.0 mi South 18.4 mph 28.8 mph 0.00 in Rain Light Rain
7:34 PM 37.4 °F 27.5 °F 35.6 °F 93% 29.89 in 9.0 mi South 18.4 mph 26.5 mph 0.01 in Rain Light Rain
7:56 PM 37.0 °F 27.0 °F 35.1 °F 93% 29.92 in 10.0 mi South 18.4 mph 28.8 mph 0.01 in   Overcast
8:56 PM 37.0 °F 27.0 °F 34.0 °F 89% 29.88 in 6.0 mi SE 18.4 mph 25.3 mph 0.00 in Rain Light Rain
9:46 PM 35.6 °F 25.5 °F 35.6 °F 100% 29.84 in 1.0 mi South 17.3 mph 24.2 mph 0.03 in Rain Rain
9:48 PM 35.6 °F 25.9 °F 35.6 °F 100% 29.84 in 0.5 mi South 16.1 mph 24.2 mph 0.03 in Fog , Rain Rain
9:56 PM 36.0 °F 25.0 °F 35.1 °F 97% 29.86 in 0.2 mi SSE 20.7 mph 25.3 mph 0.04 in Fog , Rain Rain
10:05 PM 35.6 °F 24.8 °F 35.6 °F 100% 29.85 in 1.0 mi South 19.6 mph 26.5 mph 0.02 in Rain Light Rain
10:12 PM 35.6 °F 25.9 °F 35.6 °F 100% 29.85 in 0.2 mi South 16.1 mph 25.3 mph 0.03 in Fog , Rain Rain
10:17 PM 35.6 °F 24.8 °F 35.6 °F 100% 29.84 in 0.2 mi SSE 19.6 mph 25.3 mph 0.03 in Fog , Rain Light Rain
10:53 PM 37.4 °F 27.5 °F 35.6 °F 93% 29.84 in 0.2 mi South 18.4 mph 26.5 mph 0.07 in Fog , Rain Light Rain
10:56 PM 37.0 °F 26.4 °F 36.0 °F 96% 29.86 in 0.2 mi South 20.7 mph 33.4 mph 0.07 in Fog , Rain Light Rain
11:24 PM 39.2 °F 28.3 °F 37.4 °F 93% 29.83 in 0.2 mi South 25.3 mph 36.8 mph 0.02 in Fog , Rain Light Rain
11:26 PM 39.2 °F 28.7 °F 37.4 °F 93% 29.83 in 0.5 mi South 23.0 mph 36.8 mph 0.02 in Fog , Rain Light Rain
11:32 PM 39.2 °F 29.6 °F 37.4 °F 93% 29.83 in 0.2 mi South 19.6 mph 36.8 mph 0.03 in Fog , Rain Light Rain
11:56 PM 39.9 °F 30.8 °F 39.0 °F 97% 29.86 in 0.2 mi South 18.4 mph 33.4 mph 0.05 in Fog , Rain Rain